• In Belarus
  • List of Countries
  • For 7 days
  • Water Temperature
  • Satellite Maps
  • Weather Map
  • Weather Widgets
  • user-avatar
    Login

    Hourly Weather Brzezinow

    Today, 20 February, Wednesday

    Time Temperature Precipitation Wind Pressure Humidity
    00:00 +4°C° 0 mm 4 mps 749 mmHg 89%
    01:00 +3°C° 0 mm 4 mps 749 mmHg 90%
    02:00 +2°C° 0 mm 5 mps 749 mmHg 90%
    03:00 +1°C° 0 mm 5 mps 749 mmHg 91%
    04:00 +1°C° 0 mm 5 mps 749 mmHg 91%
    05:00 +1°C° 0 mm 5 mps 750 mmHg 91%
    06:00 +1°C° 0 mm 5 mps 750 mmHg 90%
    07:00 +1°C° 0 mm 6 mps 750 mmHg 90%
    08:00 +2°C° 0 mm 6 mps 750 mmHg 83%
    09:00 +3°C° 0 mm 7 mps 751 mmHg 76%
    10:00 +2°C° 0 mm 8 mps 751 mmHg 70%
    11:00 +4°C° 0.1 mm 8 mps 751 mmHg 68%
    12:00 +4°C° 0.1 mm 8 mps 751 mmHg 66%
    13:00 +4°C° 0.1 mm 8 mps 752 mmHg 65%
    14:00 +4°C° 0 mm 8 mps 752 mmHg 65%
    15:00 +4°C° 0 mm 7 mps 752 mmHg 65%
    16:00 +4°C° 0 mm 6 mps 752 mmHg 66%
    17:00 +3°C° 0 mm 6 mps 753 mmHg 69%
    18:00 +3°C° 0 mm 6 mps 753 mmHg 72%
    19:00 +2°C° 0 mm 6 mps 754 mmHg 74%
    20:00 +2°C° 0 mm 5 mps 754 mmHg 78%
    21:00 +2°C° 0 mm 5 mps 754 mmHg 81%
    22:00 +1°C° 0 mm 4 mps 755 mmHg 84%
    23:00 +1°C° 0 mm 4 mps 755 mmHg 85%

    Tomorrow, 21 February, Thursday

    Time Temperature Precipitation Wind Pressure Humidity
    00:00 +1°C° 0 mm 3 mps 756 mmHg 86%
    01:00 +1°C° 0 mm 3 mps 756 mmHg 87%
    02:00 +2°C° 0 mm 2 mps 756 mmHg 88%
    03:00 +2°C° 0 mm 2 mps 756 mmHg 89%
    04:00 +1°C° 0 mm 2 mps 756 mmHg 90%
    05:00 +1°C° 0 mm 2 mps 756 mmHg 92%
    06:00 +2°C° 0 mm 2 mps 756 mmHg 93%
    07:00 +2°C° 0 mm 2 mps 755 mmHg 95%
    08:00 +2°C° 0.4 mm 2 mps 755 mmHg 95%
    09:00 +3°C° 0.4 mm 2 mps 755 mmHg 95%
    10:00 +3°C° 0.4 mm 2 mps 755 mmHg 95%
    11:00 +2°C° 0.9 mm 3 mps 755 mmHg 93%
    12:00 +3°C° 0.9 mm 3 mps 754 mmHg 92%
    13:00 +3°C° 0.9 mm 4 mps 754 mmHg 91%
    14:00 +3°C° 0.5 mm 4 mps 753 mmHg 91%
    15:00 +3°C° 0.5 mm 4 mps 753 mmHg 91%
    16:00 +3°C° 0.5 mm 3 mps 752 mmHg 92%
    17:00 +3°C° 0.3 mm 4 mps 752 mmHg 93%
    18:00 +3°C° 0.3 mm 4 mps 752 mmHg 94%
    19:00 +4°C° 0.3 mm 4 mps 752 mmHg 95%
    20:00 +4°C° 0.7 mm 4 mps 752 mmHg 95%
    21:00 +4°C° 0.7 mm 4 mps 752 mmHg 95%
    22:00 +4°C° 0.7 mm 4 mps 752 mmHg 95%
    23:00 +3°C° 0.5 mm 4 mps 753 mmHg 93%

    Day after tomorrow, 22 February, Friday

    Time Temperature Precipitation Wind Pressure Humidity
    00:00 0°C° 0.5 mm 5 mps 753 mmHg 91%
    01:00 -2°C° 0.5 mm 6 mps 754 mmHg 89%
    02:00 -3°C° 0.3 mm 6 mps 754 mmHg 85%
    03:00 -3°C° 0.3 mm 6 mps 755 mmHg 81%
    04:00 -4°C° 0.3 mm 6 mps 756 mmHg 77%
    05:00 -5°C° 0 mm 6 mps 757 mmHg 74%
    06:00 -5°C° 0 mm 6 mps 759 mmHg 71%
    07:00 -5°C° 0 mm 6 mps 760 mmHg 68%
    08:00 -5°C° 0 mm 6 mps 761 mmHg 65%
    09:00 -5°C° 0 mm 6 mps 762 mmHg 63%
    10:00 -5°C° 0 mm 6 mps 763 mmHg 60%
    11:00 -5°C° 0 mm 6 mps 764 mmHg 58%
    12:00 -5°C° 0 mm 6 mps 765 mmHg 56%
    13:00 -5°C° 0 mm 5 mps 765 mmHg 54%
    14:00 -5°C° 0 mm 5 mps 766 mmHg 52%
    15:00 -5°C° 0 mm 5 mps 766 mmHg 51%
    16:00 -5°C° 0 mm 5 mps 767 mmHg 50%
    17:00 -6°C° 0 mm 5 mps 767 mmHg 50%
    18:00 -6°C° 0 mm 5 mps 768 mmHg 50%
    19:00 -7°C° 0 mm 5 mps 769 mmHg 49%
    20:00 -7°C° 0 mm 4 mps 769 mmHg 47%
    21:00 -7°C° 0 mm 4 mps 769 mmHg 45%
    22:00 -7°C° 0 mm 4 mps 770 mmHg 43%
    23:00 -7°C° 0 mm 4 mps 770 mmHg 43%

    23 February, Saturday

    Time Temperature Precipitation Wind Pressure Humidity
    00:00 -6°C° 0 mm 3 mps 770 mmHg 43%
    01:00 -6°C° 0 mm 3 mps 771 mmHg 43%
    02:00 -6°C° 0 mm 3 mps 771 mmHg 45%
    03:00 -5°C° 0 mm 2 mps 771 mmHg 47%
    04:00 -5°C° 0 mm 2 mps 771 mmHg 49%
    05:00 -5°C° 0 mm 2 mps 771 mmHg 50%
    06:00 -5°C° 0 mm 2 mps 771 mmHg 51%
    07:00 -6°C° 0 mm 2 mps 771 mmHg 52%
    08:00 -5°C° 0 mm 2 mps 771 mmHg 47%
    09:00 -4°C° 0 mm 2 mps 771 mmHg 42%
    10:00 -3°C° 0 mm 2 mps 771 mmHg 37%
    11:00 -2°C° 0 mm 2 mps 771 mmHg 34%
    12:00 -1°C° 0 mm 2 mps 771 mmHg 32%
    13:00 0°C° 0 mm 3 mps 770 mmHg 29%
    14:00 0°C° 0 mm 3 mps 770 mmHg 31%
    15:00 +1°C° 0 mm 2 mps 770 mmHg 33%
    16:00 -1°C° 0 mm 2 mps 769 mmHg 35%
    17:00 -1°C° 0 mm 2 mps 769 mmHg 38%
    18:00 -2°C° 0 mm 2 mps 769 mmHg 41%
    19:00 -3°C° 0 mm 2 mps 769 mmHg 44%
    20:00 -3°C° 0 mm 2 mps 769 mmHg 45%
    21:00 -3°C° 0 mm 2 mps 769 mmHg 46%
    22:00 -3°C° 0 mm 2 mps 768 mmHg 47%
    23:00 -2°C° 0 mm 2 mps 768 mmHg 47%

    24 February, Sunday

    Time Temperature Precipitation Wind Pressure Humidity
    00:00 -2°C° 0 mm 2 mps 768 mmHg 46%
    01:00 -2°C° 0 mm 2 mps 768 mmHg 46%
    02:00 -2°C° 0 mm 2 mps 767 mmHg 47%
    03:00 -2°C° 0 mm 3 mps 767 mmHg 48%
    04:00 -2°C° 0 mm 3 mps 766 mmHg 48%
    05:00 -2°C° 0 mm 3 mps 766 mmHg 50%
    06:00 -2°C° 0 mm 3 mps 766 mmHg 52%
    07:00 -2°C° 0 mm 3 mps 766 mmHg 54%
    08:00 -2°C° 0 mm 3 mps 766 mmHg 53%
    09:00 -1°C° 0 mm 3 mps 765 mmHg 52%
    10:00 0°C° 0 mm 3 mps 765 mmHg 51%
    11:00 +1°C° 0 mm 2 mps 765 mmHg 55%
    12:00 +2°C° 0 mm 2 mps 765 mmHg 58%
    13:00 +2°C° 0 mm 2 mps 765 mmHg 62%
    14:00 +2°C° 0 mm 2 mps 764 mmHg 65%
    15:00 +3°C° 0 mm 1 mps 764 mmHg 69%
    16:00 +3°C° 0 mm 1 mps 764 mmHg 72%
    17:00 +3°C° 0 mm 1 mps 764 mmHg 74%
    18:00 +2°C° 0 mm 1 mps 764 mmHg 77%
    19:00 +1°C° 0 mm 0 mps 764 mmHg 80%
    20:00 +2°C° 0 mm 1 mps 764 mmHg 81%
    21:00 +2°C° 0 mm 1 mps 764 mmHg 81%
    22:00 +2°C° 0 mm 1 mps 764 mmHg 82%
    23:00 +2°C° 0 mm 1 mps 764 mmHg 82%

    25 February, Monday

    Time Temperature Precipitation Wind Pressure Humidity
    00:00 +2°C° 0 mm 1 mps 764 mmHg 82%
    01:00 +1°C° 0 mm 2 mps 764 mmHg 81%
    02:00 +1°C° 0.1 mm 2 mps 763 mmHg 81%
    03:00 +1°C° 0.1 mm 2 mps 763 mmHg 80%
    04:00 +1°C° 0.1 mm 2 mps 763 mmHg 80%
    05:00 -1°C° 0 mm 2 mps 763 mmHg 79%
    06:00 -1°C° 0 mm 2 mps 763 mmHg 79%
    07:00 -1°C° 0 mm 2 mps 763 mmHg 79%
    08:00 +1°C° 0 mm 2 mps 763 mmHg 77%
    09:00 +2°C° 0 mm 2 mps 763 mmHg 75%
    10:00 +3°C° 0 mm 3 mps 763 mmHg 73%
    11:00 +3°C° 0 mm 3 mps 763 mmHg 75%
    12:00 +4°C° 0 mm 3 mps 763 mmHg 78%
    13:00 +5°C° 0 mm 4 mps 763 mmHg 81%
    14:00 +4°C° 0 mm 3 mps 763 mmHg 83%
    15:00 +4°C° 0 mm 3 mps 763 mmHg 85%
    16:00 +3°C° 0 mm 3 mps 762 mmHg 87%
    17:00 +3°C° 0 mm 3 mps 763 mmHg 87%
    18:00 +2°C° 0 mm 3 mps 763 mmHg 88%
    19:00 +1°C° 0 mm 3 mps 763 mmHg 88%
    20:00 +1°C° 0 mm 3 mps 763 mmHg 88%
    21:00 0°C° 0 mm 3 mps 763 mmHg 87%
    22:00 0°C° 0 mm 3 mps 763 mmHg 87%
    23:00 0°C° 0 mm 3 mps 762 mmHg 88%
    Show more